Location: Burbank
(38.7788°N, 114.0429°W)
Time: 01:48:05
(UTC+00:00)

Tiros 1 despin weight - Pass Details

Date: 10 May 2026
Orbit: 554 x 591 km, 48.2° (Epoch: 6 June)

Event Time Altitude Azimuth Distance (km) Brightness Sun altitude
Rises 20:12:56 0° 302° (WNW) 2,730 ? 67.2°
Reaches altitude 10° 20:15:11 10° 302° (WNW) 1,835 ? 67.1°
Maximum altitude 20:19:22 87° 217° (SW) 560 ? 66.7°
Drops below altitude 10° 20:23:35 10° 125° (SE) 1,839 ? 66.3°
Sets 20:25:50 0° 125° (SE) 2,737 ? 66.0°
